• în România
  • Lista ţărilor
  • Pe 7 zile
  • Temperatura apei
  • Hartă satelitară
  • Meteo pe hartă
  • Widget-uri
  • user-avatar
    Intrare

    Meteo pe oră la Ituni

    Astăzi, 18 August, Sâmbătă

    Timp Temperatura Precipitaţii Vânt Presiune Umiditate
    00:00 +23°C° 0,6 mm 0 m/s 755 mmHg 97%
    01:00 +22°C° 0,6 mm 0 m/s 755 mmHg 97%
    02:00 +22°C° 0 mm 0 m/s 754 mmHg 97%
    03:00 +22°C° 0 mm 0 m/s 755 mmHg 98%
    04:00 +22°C° 0 mm 0 m/s 755 mmHg 98%
    05:00 +22°C° 0 mm 0 m/s 755 mmHg 98%
    06:00 +23°C° 0 mm 0 m/s 755 mmHg 95%
    07:00 +24°C° 0 mm 0 m/s 755 mmHg 92%
    08:00 +25°C° 0 mm 0 m/s 755 mmHg 89%
    09:00 +29°C° 0 mm 1 m/s 755 mmHg 77%
    10:00 +32°C° 0 mm 1 m/s 755 mmHg 65%
    11:00 +35°C° 0 mm 2 m/s 755 mmHg 53%
    12:00 +34°C° 0 mm 1 m/s 754 mmHg 54%
    13:00 +34°C° 0 mm 1 m/s 753 mmHg 54%
    14:00 +34°C° 0 mm 1 m/s 752 mmHg 54%
    15:00 +33°C° 0 mm 1 m/s 752 mmHg 57%
    16:00 +33°C° 0 mm 1 m/s 752 mmHg 61%
    17:00 +33°C° 0 mm 1 m/s 751 mmHg 64%
    18:00 +30°C° 0,2 mm 1 m/s 752 mmHg 72%
    19:00 +28°C° 0,2 mm 1 m/s 752 mmHg 81%
    20:00 +26°C° 0,2 mm 1 m/s 753 mmHg 89%
    21:00 +26°C° 0,9 mm 1 m/s 753 mmHg 92%
    22:00 +25°C° 0,9 mm 1 m/s 754 mmHg 95%
    23:00 +25°C° 0,9 mm 1 m/s 754 mmHg 98%

    Mâine, 19 August, Duminică

    Timp Temperatura Precipitaţii Vânt Presiune Umiditate
    00:00 +25°C° 0,6 mm 1 m/s 754 mmHg 98%
    01:00 +25°C° 0,6 mm 1 m/s 753 mmHg 98%
    02:00 +24°C° 0,6 mm 1 m/s 753 mmHg 98%
    03:00 +24°C° 0,4 mm 1 m/s 753 mmHg 98%
    04:00 +22°C° 0,4 mm 0 m/s 753 mmHg 98%
    05:00 +22°C° 0,4 mm 0 m/s 753 mmHg 98%
    06:00 +25°C° 0,4 mm 1 m/s 754 mmHg 96%
    07:00 +26°C° 0,4 mm 1 m/s 754 mmHg 94%
    08:00 +27°C° 0,4 mm 1 m/s 755 mmHg 93%
    09:00 +28°C° 1 mm 1 m/s 755 mmHg 87%
    10:00 +29°C° 1 mm 1 m/s 755 mmHg 82%
    11:00 +30°C° 1 mm 2 m/s 755 mmHg 77%
    12:00 +31°C° 0,9 mm 1 m/s 754 mmHg 75%
    13:00 +32°C° 0,9 mm 1 m/s 753 mmHg 72%
    14:00 +32°C° 0,9 mm 1 m/s 753 mmHg 70%
    15:00 +32°C° 0,9 mm 1 m/s 752 mmHg 74%
    16:00 +31°C° 0,9 mm 1 m/s 752 mmHg 79%
    17:00 +28°C° 0,9 mm 0 m/s 752 mmHg 83%
    18:00 +28°C° 0,4 mm 1 m/s 753 mmHg 86%
    19:00 +27°C° 0,4 mm 1 m/s 753 mmHg 90%
    20:00 +26°C° 0,4 mm 1 m/s 754 mmHg 93%
    21:00 +26°C° 0,2 mm 1 m/s 754 mmHg 94%
    22:00 +25°C° 0,2 mm 1 m/s 755 mmHg 95%
    23:00 +25°C° 0,2 mm 1 m/s 755 mmHg 96%

    Poimâine, 20 August, Luni

    Timp Temperatura Precipitaţii Vânt Presiune Umiditate
    00:00 +23°C° 0,3 mm 0 m/s 754 mmHg 97%
    01:00 +23°C° 0,3 mm 0 m/s 754 mmHg 97%
    02:00 +22°C° 0,3 mm 0 m/s 753 mmHg 98%
    03:00 +22°C° 0,9 mm 0 m/s 753 mmHg 98%
    04:00 +22°C° 0,9 mm 0 m/s 753 mmHg 98%
    05:00 +22°C° 0,9 mm 0 m/s 753 mmHg 98%
    06:00 +23°C° 0,8 mm 0 m/s 754 mmHg 95%
    07:00 +24°C° 0,8 mm 0 m/s 755 mmHg 92%
    08:00 +25°C° 0,8 mm 0 m/s 755 mmHg 89%
    09:00 +29°C° 1,8 mm 1 m/s 755 mmHg 85%
    10:00 +30°C° 1,8 mm 1 m/s 755 mmHg 81%
    11:00 +31°C° 1,8 mm 1 m/s 755 mmHg 77%
    12:00 +31°C° 2,4 mm 1 m/s 754 mmHg 77%
    13:00 +31°C° 2,4 mm 1 m/s 753 mmHg 78%
    14:00 +31°C° 2,4 mm 1 m/s 752 mmHg 79%
    15:00 +31°C° 1,2 mm 1 m/s 752 mmHg 82%
    16:00 +30°C° 1,2 mm 1 m/s 752 mmHg 84%
    17:00 +29°C° 1,2 mm 1 m/s 752 mmHg 87%
    18:00 +28°C° 0,1 mm 1 m/s 753 mmHg 90%
    19:00 +27°C° 0,1 mm 1 m/s 753 mmHg 92%
    20:00 +26°C° 0,1 mm 1 m/s 754 mmHg 95%
    21:00 +25°C° 0,3 mm 1 m/s 754 mmHg 96%
    22:00 +25°C° 0,3 mm 1 m/s 754 mmHg 96%
    23:00 +25°C° 0,3 mm 1 m/s 755 mmHg 97%

    21 August, Marţi

    Timp Temperatura Precipitaţii Vânt Presiune Umiditate
    00:00 +23°C° 0 mm 0 m/s 754 mmHg 98%
    01:00 +22°C° 0 mm 0 m/s 754 mmHg 98%
    02:00 +22°C° 0 mm 0 m/s 753 mmHg 98%
    03:00 +22°C° 0,1 mm 0 m/s 753 mmHg 99%
    04:00 +22°C° 0,1 mm 0 m/s 754 mmHg 99%
    05:00 +22°C° 0,1 mm 0 m/s 754 mmHg 99%
    06:00 +23°C° 0,1 mm 0 m/s 754 mmHg 95%
    07:00 +24°C° 0,1 mm 0 m/s 755 mmHg 91%
    08:00 +26°C° 0,1 mm 0 m/s 756 mmHg 88%
    09:00 +29°C° 0,2 mm 1 m/s 755 mmHg 79%
    10:00 +31°C° 0,2 mm 1 m/s 755 mmHg 71%
    11:00 +32°C° 0,2 mm 2 m/s 755 mmHg 62%
    12:00 +34°C° 0,4 mm 2 m/s 754 mmHg 62%
    13:00 +34°C° 0,4 mm 2 m/s 753 mmHg 62%
    14:00 +33°C° 0,4 mm 1 m/s 752 mmHg 61%
    15:00 +32°C° 0,3 mm 1 m/s 752 mmHg 67%
    16:00 +31°C° 0,3 mm 1 m/s 752 mmHg 73%
    17:00 +30°C° 0,3 mm 1 m/s 752 mmHg 78%
    18:00 +29°C° 0,2 mm 1 m/s 752 mmHg 83%
    19:00 +27°C° 0,2 mm 1 m/s 753 mmHg 88%
    20:00 +26°C° 0,2 mm 1 m/s 754 mmHg 93%
    21:00 +25°C° 0,3 mm 1 m/s 754 mmHg 95%
    22:00 +25°C° 0,3 mm 1 m/s 754 mmHg 96%
    23:00 +23°C° 0,3 mm 0 m/s 754 mmHg 97%

    22 August, Miercuri

    Timp Temperatura Precipitaţii Vânt Presiune Umiditate
    00:00 +22°C° 0,2 mm 0 m/s 754 mmHg 98%
    01:00 +22°C° 0,2 mm 0 m/s 754 mmHg 98%
    02:00 +22°C° 0,2 mm 0 m/s 753 mmHg 99%
    03:00 +22°C° 0,3 mm 0 m/s 753 mmHg 99%
    04:00 +22°C° 0,3 mm 0 m/s 754 mmHg 99%
    05:00 +22°C° 0,3 mm 0 m/s 754 mmHg 99%
    06:00 +23°C° 0,4 mm 0 m/s 754 mmHg 96%
    07:00 +24°C° 0,4 mm 0 m/s 755 mmHg 93%
    08:00 +25°C° 0,4 mm 0 m/s 755 mmHg 90%
    09:00 +29°C° 0,3 mm 1 m/s 755 mmHg 80%
    10:00 +31°C° 0,3 mm 1 m/s 755 mmHg 69%
    11:00 +34°C° 0,3 mm 2 m/s 755 mmHg 59%
    12:00 +33°C° 0,4 mm 1 m/s 754 mmHg 60%
    13:00 +33°C° 0,4 mm 1 m/s 753 mmHg 61%
    14:00 +33°C° 0,4 mm 1 m/s 752 mmHg 62%
    15:00 +33°C° 0,5 mm 1 m/s 752 mmHg 66%
    16:00 +32°C° 0,5 mm 1 m/s 752 mmHg 71%
    17:00 +31°C° 0,5 mm 1 m/s 752 mmHg 75%
    18:00 +30°C° 0,2 mm 1 m/s 752 mmHg 80%
    19:00 +28°C° 0,2 mm 1 m/s 752 mmHg 85%
    20:00 +26°C° 0,2 mm 1 m/s 753 mmHg 90%
    21:00 +26°C° 0,1 mm 1 m/s 753 mmHg 92%
    22:00 +25°C° 0,1 mm 1 m/s 753 mmHg 94%
    23:00 +25°C° 0,1 mm 1 m/s 754 mmHg 97%

    23 August, Joi

    Timp Temperatura Precipitaţii Vânt Presiune Umiditate
    00:00 +25°C° 0,3 mm 1 m/s 753 mmHg 97%
    01:00 +24°C° 0,3 mm 1 m/s 753 mmHg 98%
    02:00 +22°C° 0,3 mm 0 m/s 753 mmHg 99%
    03:00 +22°C° 0,3 mm 0 m/s 753 mmHg 99%
    04:00 +22°C° 0,3 mm 0 m/s 753 mmHg 99%
    05:00 +22°C° 0,3 mm 0 m/s 753 mmHg 99%
    06:00 +23°C° 0,1 mm 0 m/s 754 mmHg 96%
    07:00 +24°C° 0,1 mm 0 m/s 754 mmHg 94%
    08:00 +25°C° 0,1 mm 0 m/s 755 mmHg 91%
    09:00 +29°C° 0,3 mm 1 m/s 755 mmHg 83%
    10:00 +30°C° 0,3 mm 1 m/s 754 mmHg 74%
    11:00 +32°C° 0,3 mm 2 m/s 754 mmHg 65%
    12:00 +32°C° 0,4 mm 2 m/s 753 mmHg 63%
    13:00 +34°C° 0,4 mm 2 m/s 752 mmHg 61%
    14:00 +34°C° 0,4 mm 2 m/s 751 mmHg 59%
    15:00 +32°C° 0,2 mm 1 m/s 751 mmHg 63%
    16:00 +32°C° 0,2 mm 1 m/s 751 mmHg 67%
    17:00 +31°C° 0,2 mm 1 m/s 751 mmHg 72%
    18:00 +29°C° 0,2 mm 1 m/s 751 mmHg 78%
    19:00 +28°C° 0,2 mm 1 m/s 752 mmHg 84%
    20:00 +26°C° 0,2 mm 1 m/s 752 mmHg 90%
    21:00 +26°C° 0,2 mm 1 m/s 753 mmHg 93%
    22:00 +25°C° 0,2 mm 1 m/s 753 mmHg 95%
    23:00 +23°C° 0,2 mm 0 m/s 753 mmHg 97%
    Arată mai mult